Year,Month,Day,Hour,Minute,Value (Times are PST for temperature in C)
2009,12,09,00,00,-4.40
2009,12,09,00,01,-4.30
2009,12,09,00,02,-4.30
2009,12,09,00,03,-4.30
2009,12,09,00,04,-4.30
2009,12,09,00,05,-4.30
2009,12,09,00,06,-4.30
2009,12,09,00,07,-4.30
2009,12,09,00,08,-4.20
2009,12,09,00,09,-4.20
2009,12,09,00,10,-4.20
2009,12,09,00,11,-4.20
2009,12,09,00,12,-4.20
2009,12,09,00,13,-4.20
2009,12,09,00,14,-4.30
2009,12,09,00,15,-4.30
2009,12,09,00,16,-4.30
2009,12,09,00,17,-4.30
2009,12,09,00,18,-4.30
2009,12,09,00,19,-4.30
2009,12,09,00,20,-4.30
2009,12,09,00,21,-4.40
2009,12,09,00,22,-4.40
2009,12,09,00,23,-4.40
2009,12,09,00,24,-4.40
2009,12,09,00,25,-4.40
2009,12,09,00,26,-4.40
2009,12,09,00,27,-4.40
2009,12,09,00,28,-4.40
2009,12,09,00,29,-4.40
2009,12,09,00,30,-4.40
2009,12,09,00,31,-4.40
2009,12,09,00,32,-4.50
2009,12,09,00,33,-4.50
2009,12,09,00,34,-4.50
2009,12,09,00,35,-4.50
2009,12,09,00,36,-4.60
2009,12,09,00,37,-4.60
2009,12,09,00,38,-4.60
2009,12,09,00,39,-4.60
2009,12,09,00,40,-4.70
2009,12,09,00,41,-4.70
2009,12,09,00,42,-4.70
2009,12,09,00,43,-4.70
2009,12,09,00,44,-4.70
2009,12,09,00,45,-4.80
2009,12,09,00,46,-4.80
2009,12,09,00,47,-4.80
2009,12,09,00,48,-4.80
2009,12,09,00,49,-4.80
2009,12,09,00,50,-4.80
2009,12,09,00,51,-4.80
2009,12,09,00,52,-4.80
2009,12,09,00,53,-4.80
2009,12,09,00,54,-4.80
2009,12,09,00,55,-4.80
2009,12,09,00,56,-4.80
2009,12,09,00,57,-4.80
2009,12,09,00,58,-4.80
2009,12,09,00,59,-4.80
2009,12,09,01,00,-4.80
2009,12,09,01,01,-4.80
2009,12,09,01,02,-4.80
2009,12,09,01,03,-4.80
2009,12,09,01,04,-4.80
2009,12,09,01,05,-4.80
2009,12,09,01,06,-4.80
2009,12,09,01,07,-4.80
2009,12,09,01,08,-4.80
2009,12,09,01,09,-4.80
2009,12,09,01,10,-4.80
2009,12,09,01,11,-4.80
2009,12,09,01,12,-4.80
2009,12,09,01,13,-4.80
2009,12,09,01,14,-4.80
2009,12,09,01,15,-4.80
2009,12,09,01,16,-4.90
2009,12,09,01,17,-4.90
2009,12,09,01,18,-4.90
2009,12,09,01,19,-4.90
2009,12,09,01,20,-4.90
2009,12,09,01,21,-4.80
2009,12,09,01,22,-4.80
2009,12,09,01,23,-4.80
2009,12,09,01,24,-4.80
2009,12,09,01,25,-4.80
2009,12,09,01,26,-4.80
2009,12,09,01,27,-4.80
2009,12,09,01,28,-4.80
2009,12,09,01,29,-4.70
2009,12,09,01,30,-4.70
2009,12,09,01,31,-4.70
2009,12,09,01,32,-4.70
2009,12,09,01,33,-4.70
2009,12,09,01,34,-4.70
2009,12,09,01,35,-4.70
2009,12,09,01,36,-4.70
2009,12,09,01,37,-4.80
2009,12,09,01,38,-4.80
2009,12,09,01,39,-4.80
2009,12,09,01,40,-4.80
2009,12,09,01,41,-4.80
2009,12,09,01,42,-4.80
2009,12,09,01,43,-4.80
2009,12,09,01,44,-4.90
2009,12,09,01,45,-4.90
2009,12,09,01,46,-4.90
2009,12,09,01,47,-4.90
2009,12,09,01,48,-5.00
2009,12,09,01,49,-5.00
2009,12,09,01,50,-5.10
2009,12,09,01,51,-5.10
2009,12,09,01,52,-5.10
2009,12,09,01,53,-5.10
2009,12,09,01,54,-5.10
2009,12,09,01,55,-5.10
2009,12,09,01,56,-5.10
2009,12,09,01,57,-5.10
2009,12,09,01,58,-5.20
2009,12,09,01,59,-5.20
2009,12,09,02,00,-5.20
2009,12,09,02,01,-5.20
2009,12,09,02,02,-5.20
2009,12,09,02,03,-5.30
2009,12,09,02,04,-5.30
2009,12,09,02,05,-5.30
2009,12,09,02,06,-5.30
2009,12,09,02,07,-5.30
2009,12,09,02,08,-5.30
2009,12,09,02,09,-5.20
2009,12,09,02,10,-5.20
2009,12,09,02,11,-5.10
2009,12,09,02,12,-5.10
2009,12,09,02,13,-5.00
2009,12,09,02,14,-4.90
2009,12,09,02,15,-4.90
2009,12,09,02,16,-4.80
2009,12,09,02,17,-4.80
2009,12,09,02,18,-4.80
2009,12,09,02,19,-4.80
2009,12,09,02,20,-4.70
2009,12,09,02,21,-4.70
2009,12,09,02,22,-4.70
2009,12,09,02,23,-4.70
2009,12,09,02,24,-4.60
2009,12,09,02,25,-4.60
2009,12,09,02,26,-4.50
2009,12,09,02,27,-4.50
2009,12,09,02,28,-4.50
2009,12,09,02,29,-4.50
2009,12,09,02,30,-4.50
2009,12,09,02,31,-4.50
2009,12,09,02,32,-4.60
2009,12,09,02,33,-4.60
2009,12,09,02,34,-4.70
2009,12,09,02,35,-4.70
2009,12,09,02,36,-4.70
2009,12,09,02,37,-4.80
2009,12,09,02,38,-4.80
2009,12,09,02,39,-4.90
2009,12,09,02,40,-4.90
2009,12,09,02,41,-5.00
2009,12,09,02,42,-5.00
2009,12,09,02,43,-5.10
2009,12,09,02,44,-5.10
2009,12,09,02,45,-5.20
2009,12,09,02,46,-5.20
2009,12,09,02,47,-5.30
2009,12,09,02,48,-5.30
2009,12,09,02,49,-5.30
2009,12,09,02,50,-5.30
2009,12,09,02,51,-5.30
2009,12,09,02,52,-5.30
2009,12,09,02,53,-5.30
2009,12,09,02,54,-5.30
2009,12,09,02,55,-5.30
2009,12,09,02,56,-5.20
2009,12,09,02,57,-5.20
2009,12,09,02,58,-5.20
2009,12,09,02,59,-5.20
2009,12,09,03,00,-5.20
2009,12,09,03,01,-5.20
2009,12,09,03,02,-5.20
2009,12,09,03,03,-5.20
2009,12,09,03,04,-5.20
2009,12,09,03,05,-5.20
2009,12,09,03,06,-5.20
2009,12,09,03,07,-5.20
2009,12,09,03,08,-5.20
2009,12,09,03,09,-5.20
2009,12,09,03,10,-5.30
2009,12,09,03,11,-5.30
2009,12,09,03,12,-5.30
2009,12,09,03,13,-5.40
2009,12,09,03,14,-5.40
2009,12,09,03,15,-5.40
2009,12,09,03,16,-5.50
2009,12,09,03,17,-5.50
2009,12,09,03,18,-5.50
2009,12,09,03,19,-5.50
2009,12,09,03,20,-5.50
2009,12,09,03,21,-5.50
2009,12,09,03,22,-5.50
2009,12,09,03,23,-5.50
2009,12,09,03,24,-5.60
2009,12,09,03,25,-5.60
2009,12,09,03,26,-5.60
2009,12,09,03,27,-5.60
2009,12,09,03,28,-5.60
2009,12,09,03,29,-5.60
2009,12,09,03,30,-5.60
2009,12,09,03,31,-5.60
2009,12,09,03,32,-5.60
2009,12,09,03,33,-5.60
2009,12,09,03,34,-5.60
2009,12,09,03,35,-5.70
2009,12,09,03,36,-5.70
2009,12,09,03,37,-5.70
2009,12,09,03,38,-5.70
2009,12,09,03,39,-5.80
2009,12,09,03,40,-5.80
2009,12,09,03,41,-5.80
2009,12,09,03,42,-5.80
2009,12,09,03,43,-5.80
2009,12,09,03,44,-5.80
2009,12,09,03,45,-5.80
2009,12,09,03,46,-5.90
2009,12,09,03,47,-5.90
2009,12,09,03,48,-5.90
2009,12,09,03,49,-5.90
2009,12,09,03,50,-5.80
2009,12,09,03,51,-5.80
2009,12,09,03,52,-5.80
2009,12,09,03,53,-5.70
2009,12,09,03,54,-5.70
2009,12,09,03,55,-5.60
2009,12,09,03,56,-5.60
2009,12,09,03,57,-5.50
2009,12,09,03,58,-5.50
2009,12,09,03,59,-5.50
2009,12,09,04,00,-5.50
2009,12,09,04,01,-5.50
2009,12,09,04,02,-5.50
2009,12,09,04,03,-5.60
2009,12,09,04,04,-5.60
2009,12,09,04,05,-5.60
2009,12,09,04,06,-5.60
2009,12,09,04,07,-5.60
2009,12,09,04,08,-5.60
2009,12,09,04,09,-5.70
2009,12,09,04,10,-5.70
2009,12,09,04,11,-5.70
2009,12,09,04,12,-5.70
2009,12,09,04,13,-5.70
2009,12,09,04,14,-5.70
2009,12,09,04,15,-5.70
2009,12,09,04,16,-5.80
2009,12,09,04,17,-5.80
2009,12,09,04,18,-5.80
2009,12,09,04,19,-5.80
2009,12,09,04,20,-5.80
2009,12,09,04,21,-5.80
2009,12,09,04,22,-5.80
2009,12,09,04,23,-5.80
2009,12,09,04,24,-5.80
2009,12,09,04,25,-5.80
2009,12,09,04,26,-5.80
2009,12,09,04,27,-5.80
2009,12,09,04,28,-5.90
2009,12,09,04,29,-5.80
2009,12,09,04,30,-5.80
2009,12,09,04,31,-5.70
2009,12,09,04,32,-5.70
2009,12,09,04,33,-5.60
2009,12,09,04,34,-5.40
2009,12,09,04,35,-5.30
2009,12,09,04,36,-5.20
2009,12,09,04,37,-5.10
2009,12,09,04,38,-5.00
2009,12,09,04,39,-5.00
2009,12,09,04,40,-4.80
2009,12,09,04,41,-4.70
2009,12,09,04,42,-4.60
2009,12,09,04,43,-4.50
2009,12,09,04,44,-4.50
2009,12,09,04,45,-4.40
2009,12,09,04,46,-4.40
2009,12,09,04,47,-4.40
2009,12,09,04,48,-4.40
2009,12,09,04,49,-4.40
2009,12,09,04,50,-4.40
2009,12,09,04,51,-4.40
2009,12,09,04,52,-4.30
2009,12,09,04,53,-4.20
2009,12,09,04,54,-4.20
2009,12,09,04,55,-4.10
2009,12,09,04,56,-4.00
2009,12,09,04,57,-4.00
2009,12,09,04,58,-3.90
2009,12,09,04,59,-3.90
2009,12,09,05,00,-3.90
2009,12,09,05,01,-3.90
2009,12,09,05,02,-3.90
2009,12,09,05,03,-3.90
2009,12,09,05,04,-3.80
2009,12,09,05,05,-3.80
2009,12,09,05,06,-3.90
2009,12,09,05,07,-3.90
2009,12,09,05,08,-3.80
2009,12,09,05,09,-3.80
2009,12,09,05,10,-3.80
2009,12,09,05,11,-3.70
2009,12,09,05,12,-3.60
2009,12,09,05,13,-3.60
2009,12,09,05,14,-3.60
2009,12,09,05,15,-3.60
2009,12,09,05,16,-3.60
2009,12,09,05,17,-3.50
2009,12,09,05,18,-3.60
2009,12,09,05,19,-3.60
2009,12,09,05,20,-3.50
2009,12,09,05,21,-3.50
2009,12,09,05,22,-3.50
2009,12,09,05,23,-3.50
2009,12,09,05,24,-3.40
2009,12,09,05,25,-3.40
2009,12,09,05,26,-3.40
2009,12,09,05,27,-3.40
2009,12,09,05,28,-3.50
2009,12,09,05,29,-3.60
2009,12,09,05,30,-3.70
2009,12,09,05,31,-3.90
2009,12,09,05,32,-4.00
2009,12,09,05,33,-4.10
2009,12,09,05,34,-4.10
2009,12,09,05,35,-4.20
2009,12,09,05,36,-4.20
2009,12,09,05,37,-4.20
2009,12,09,05,38,-4.30
2009,12,09,05,39,-4.30
2009,12,09,05,40,-4.30
2009,12,09,05,41,-4.40
2009,12,09,05,42,-4.40
2009,12,09,05,43,-4.40
2009,12,09,05,44,-4.50
2009,12,09,05,45,-4.50
2009,12,09,05,46,-4.50
2009,12,09,05,47,-4.60
2009,12,09,05,48,-4.60
2009,12,09,05,49,-4.60
2009,12,09,05,50,-4.50
2009,12,09,05,51,-4.50
2009,12,09,05,52,-4.50
2009,12,09,05,53,-4.50
2009,12,09,05,54,-4.50
2009,12,09,05,55,-4.50
2009,12,09,05,56,-4.50
2009,12,09,05,57,-4.50
2009,12,09,05,58,-4.50
2009,12,09,05,59,-4.50
2009,12,09,06,00,-4.50
2009,12,09,06,01,-4.40
2009,12,09,06,02,-4.40
2009,12,09,06,03,-4.40
2009,12,09,06,04,-4.40
2009,12,09,06,05,-4.40
2009,12,09,06,06,-4.40
2009,12,09,06,07,-4.40
2009,12,09,06,08,-4.40
2009,12,09,06,09,-4.40
2009,12,09,06,10,-4.40
2009,12,09,06,11,-4.40
2009,12,09,06,12,-4.40
2009,12,09,06,13,-4.30
2009,12,09,06,14,-4.30
2009,12,09,06,15,-4.20
2009,12,09,06,16,-4.20
2009,12,09,06,17,-4.20
2009,12,09,06,18,-4.20
2009,12,09,06,19,-4.20
2009,12,09,06,20,-4.20
2009,12,09,06,21,-4.20
2009,12,09,06,22,-4.20
2009,12,09,06,23,-4.20
2009,12,09,06,24,-4.20
2009,12,09,06,25,-4.20
2009,12,09,06,26,-4.20
2009,12,09,06,27,-4.20
2009,12,09,06,28,-4.20
2009,12,09,06,29,-4.20
2009,12,09,06,30,-4.20
2009,12,09,06,31,-4.10
2009,12,09,06,32,-4.10
2009,12,09,06,33,-4.10
2009,12,09,06,34,-4.00
2009,12,09,06,35,-4.00
2009,12,09,06,36,-4.00
2009,12,09,06,37,-4.00
2009,12,09,06,38,-4.00
2009,12,09,06,39,-4.00
2009,12,09,06,40,-4.00
2009,12,09,06,41,-4.10
2009,12,09,06,42,-4.10
2009,12,09,06,43,-4.10
2009,12,09,06,44,-4.10
2009,12,09,06,45,-4.20
2009,12,09,06,46,-4.20
2009,12,09,06,47,-4.20
2009,12,09,06,48,-4.20
2009,12,09,06,49,-4.30
2009,12,09,06,50,-4.30
2009,12,09,06,51,-4.30
2009,12,09,06,52,-4.30
2009,12,09,06,53,-4.30
2009,12,09,06,54,-4.30
2009,12,09,06,55,-4.30
2009,12,09,06,56,-4.30
2009,12,09,06,57,-4.20
2009,12,09,06,58,-4.20
2009,12,09,06,59,-4.20
2009,12,09,07,00,-4.10
2009,12,09,07,01,-4.00
2009,12,09,07,02,-3.90
2009,12,09,07,03,-3.90
2009,12,09,07,04,-3.80
2009,12,09,07,05,-3.80
2009,12,09,07,06,-3.80
2009,12,09,07,07,-3.80
2009,12,09,07,08,-3.70
2009,12,09,07,09,-3.70
2009,12,09,07,10,-3.70
2009,12,09,07,11,-3.70
2009,12,09,07,12,-3.60
2009,12,09,07,13,-3.60
2009,12,09,07,14,-3.60
2009,12,09,07,15,-3.60
2009,12,09,07,16,-3.60
2009,12,09,07,17,-3.60
2009,12,09,07,18,-3.70
2009,12,09,07,19,-3.70
2009,12,09,07,20,-3.70
2009,12,09,07,21,-3.70
2009,12,09,07,22,-3.70
2009,12,09,07,23,-3.70
2009,12,09,07,24,-3.70
2009,12,09,07,25,-3.70
2009,12,09,07,26,-3.80
2009,12,09,07,27,-3.80
2009,12,09,07,28,-3.80
2009,12,09,07,29,-3.80
2009,12,09,07,30,-3.80
2009,12,09,07,31,-3.80
2009,12,09,07,32,-3.80
2009,12,09,07,33,-3.80
2009,12,09,07,34,-3.90
2009,12,09,07,35,-3.90
2009,12,09,07,36,-3.90
2009,12,09,07,37,-3.90
2009,12,09,07,38,-3.90
2009,12,09,07,39,-3.90
2009,12,09,07,40,-3.90
2009,12,09,07,41,-3.90
2009,12,09,07,42,-3.90
2009,12,09,07,43,-3.90
2009,12,09,07,44,-3.90
2009,12,09,07,45,-3.80
2009,12,09,07,46,-3.80
2009,12,09,07,47,-3.80
2009,12,09,07,48,-3.70
2009,12,09,07,49,-3.70
2009,12,09,07,50,-3.60
2009,12,09,07,51,-3.60
2009,12,09,07,52,-3.50
2009,12,09,07,53,-3.50
2009,12,09,07,54,-3.40
2009,12,09,07,55,-3.30
2009,12,09,07,56,-3.30
2009,12,09,07,57,-3.30
2009,12,09,07,58,-3.30
2009,12,09,07,59,-3.30
2009,12,09,08,00,-3.30
2009,12,09,08,01,-3.30
2009,12,09,08,02,-3.30
2009,12,09,08,03,-3.30
2009,12,09,08,04,-3.30
2009,12,09,08,05,-3.30
2009,12,09,08,06,-3.30
2009,12,09,08,07,-3.20
2009,12,09,08,08,-3.20
2009,12,09,08,09,-3.20
2009,12,09,08,10,-3.20
2009,12,09,08,11,-3.10
2009,12,09,08,12,-3.00
2009,12,09,08,13,-3.00
2009,12,09,08,14,-2.90
2009,12,09,08,15,-2.90
2009,12,09,08,16,-2.90
2009,12,09,08,17,-2.90
2009,12,09,08,18,-2.80
2009,12,09,08,19,-2.90
2009,12,09,08,20,-2.90
2009,12,09,08,21,-2.90
2009,12,09,08,22,-2.90
2009,12,09,08,23,-2.90
2009,12,09,08,24,-2.90
2009,12,09,08,25,-2.90
2009,12,09,08,26,-2.90
2009,12,09,08,27,-2.90
2009,12,09,08,28,-2.90
2009,12,09,08,29,-2.90
2009,12,09,08,30,-2.90
2009,12,09,08,31,-2.90
2009,12,09,08,32,-2.90
2009,12,09,08,33,-2.90
2009,12,09,08,34,-2.90
2009,12,09,08,35,-2.80
2009,12,09,08,36,-2.80
2009,12,09,08,37,-2.80
2009,12,09,08,38,-2.80
2009,12,09,08,39,-2.80
2009,12,09,08,40,-2.80
2009,12,09,08,41,-2.80
2009,12,09,08,42,-2.80
2009,12,09,08,43,-2.80
2009,12,09,08,44,-2.80
2009,12,09,08,45,-2.80
2009,12,09,08,46,-2.80
2009,12,09,08,47,-2.80
2009,12,09,08,48,-2.80
2009,12,09,08,49,-2.70
2009,12,09,08,50,-2.80
2009,12,09,08,51,-2.80
2009,12,09,08,52,-2.70
2009,12,09,08,53,-2.70
2009,12,09,08,54,-2.80
2009,12,09,08,55,-2.80
2009,12,09,08,56,-2.70
2009,12,09,08,57,-2.70
2009,12,09,08,58,-2.70
2009,12,09,08,59,-2.80
2009,12,09,09,00,-2.70
2009,12,09,09,01,-2.70
2009,12,09,09,02,-2.70
2009,12,09,09,03,-2.70
2009,12,09,09,04,-2.70
2009,12,09,09,05,-2.70
2009,12,09,09,06,-2.70
2009,12,09,09,07,-2.70
2009,12,09,09,08,-2.70
2009,12,09,09,09,-2.70
2009,12,09,09,10,-2.70
2009,12,09,09,11,-2.70
2009,12,09,09,12,-2.70
2009,12,09,09,13,-2.70
2009,12,09,09,14,-2.70
2009,12,09,09,15,-2.70
2009,12,09,09,16,-2.70
2009,12,09,09,17,-2.60
2009,12,09,09,18,-2.60
2009,12,09,09,19,-2.60
2009,12,09,09,20,-2.60
2009,12,09,09,21,-2.60
2009,12,09,09,22,-2.60
2009,12,09,09,23,-2.60
2009,12,09,09,24,-2.50
2009,12,09,09,25,-2.50
2009,12,09,09,26,-2.50
2009,12,09,09,27,-2.50
2009,12,09,09,28,-2.50
2009,12,09,09,29,-2.50
2009,12,09,09,30,-2.40
2009,12,09,09,31,-2.40
2009,12,09,09,32,-2.40
2009,12,09,09,33,-2.40
2009,12,09,09,34,-2.40
2009,12,09,09,35,-2.40
2009,12,09,09,36,-2.40
2009,12,09,09,37,-2.40
2009,12,09,09,38,-2.40
2009,12,09,09,39,-2.40
2009,12,09,09,40,-2.40
2009,12,09,09,41,-2.40
2009,12,09,09,42,-2.40
2009,12,09,09,43,-2.30
2009,12,09,09,44,-2.30
2009,12,09,09,45,-2.30
2009,12,09,09,46,-2.30
2009,12,09,09,47,-2.30
2009,12,09,09,48,-2.30
2009,12,09,09,49,-2.30
2009,12,09,09,50,-2.30
2009,12,09,09,51,-2.30
2009,12,09,09,52,-2.30
2009,12,09,09,53,-2.30
2009,12,09,09,54,-2.30
2009,12,09,09,55,-2.30
2009,12,09,09,56,-2.30
2009,12,09,09,57,-2.20
2009,12,09,09,58,-2.20
2009,12,09,09,59,-2.20
2009,12,09,10,00,-2.20
2009,12,09,10,01,-2.20
2009,12,09,10,02,-2.20
2009,12,09,10,03,-2.20
2009,12,09,10,04,-2.20
2009,12,09,10,05,-2.20
2009,12,09,10,06,-2.20
2009,12,09,10,07,-2.20
2009,12,09,10,08,-2.20
2009,12,09,10,09,-2.20
2009,12,09,10,10,-2.10
2009,12,09,10,11,-2.10
2009,12,09,10,12,-2.10
2009,12,09,10,13,-2.10
2009,12,09,10,14,-2.10
2009,12,09,10,15,-2.10
2009,12,09,10,16,-2.10
2009,12,09,10,17,-2.10
2009,12,09,10,18,-2.10
2009,12,09,10,19,-2.10
2009,12,09,10,20,-2.10
2009,12,09,10,21,-2.10
2009,12,09,10,22,-2.10
2009,12,09,10,23,-2.10
2009,12,09,10,24,-2.00
2009,12,09,10,25,-2.00
2009,12,09,10,26,-2.00
2009,12,09,10,27,-2.00
2009,12,09,10,28,-2.00
2009,12,09,10,29,-2.00
2009,12,09,10,30,-2.00
2009,12,09,10,31,-2.00
2009,12,09,10,32,-1.90
2009,12,09,10,33,-1.90
2009,12,09,10,34,-1.90
2009,12,09,10,35,-1.90
2009,12,09,10,36,-1.90
2009,12,09,10,37,-1.90
2009,12,09,10,38,-1.90
2009,12,09,10,39,-1.90
2009,12,09,10,40,-1.90
2009,12,09,10,41,-1.90
2009,12,09,10,42,-1.90
2009,12,09,10,43,-1.90
2009,12,09,10,44,-1.90
2009,12,09,10,45,-1.90
2009,12,09,10,46,-1.90
2009,12,09,10,47,-1.90
2009,12,09,10,48,-1.90
2009,12,09,10,49,-1.90
2009,12,09,10,50,-1.90
2009,12,09,10,51,-1.90
2009,12,09,10,52,-1.90
2009,12,09,10,53,-1.90
2009,12,09,10,54,-1.90
2009,12,09,10,55,-1.90
2009,12,09,10,56,-1.90
2009,12,09,10,57,-1.90
2009,12,09,10,58,-1.90
2009,12,09,10,59,-1.90
2009,12,09,11,00,-1.80
2009,12,09,11,01,-1.80
2009,12,09,11,02,-1.80
2009,12,09,11,03,-1.80
2009,12,09,11,04,-1.80
2009,12,09,11,05,-1.80
2009,12,09,11,06,-1.80
2009,12,09,11,07,-1.80
2009,12,09,11,08,-1.80
2009,12,09,11,09,-1.80
2009,12,09,11,10,-1.80
2009,12,09,11,11,-1.80
2009,12,09,11,12,-1.80
2009,12,09,11,13,-1.80
2009,12,09,11,14,-1.80
2009,12,09,11,15,-1.80
2009,12,09,11,16,-1.80
2009,12,09,11,17,-1.80
2009,12,09,11,18,-1.80
2009,12,09,11,19,-1.80
2009,12,09,11,20,-1.80
2009,12,09,11,21,-1.80
2009,12,09,11,22,-1.80
2009,12,09,11,23,-1.80
2009,12,09,11,24,-1.70
2009,12,09,11,25,-1.70
2009,12,09,11,26,-1.70
2009,12,09,11,27,-1.70
2009,12,09,11,28,-1.70
2009,12,09,11,29,-1.70
2009,12,09,11,30,-1.70
2009,12,09,11,31,-1.70
2009,12,09,11,32,-1.70
2009,12,09,11,33,-1.70
2009,12,09,11,34,-1.70
2009,12,09,11,35,-1.70
2009,12,09,11,36,-1.70
2009,12,09,11,37,-1.70
2009,12,09,11,38,-1.60
2009,12,09,11,39,-1.60
2009,12,09,11,40,-1.60
2009,12,09,11,41,-1.60
2009,12,09,11,42,-1.60
2009,12,09,11,43,-1.60
2009,12,09,11,44,-1.60
2009,12,09,11,45,-1.60
2009,12,09,11,46,-1.60
2009,12,09,11,47,-1.60
2009,12,09,11,48,-1.50
2009,12,09,11,49,-1.50
2009,12,09,11,50,-1.50
2009,12,09,11,51,-1.50
2009,12,09,11,52,-1.50
2009,12,09,11,53,-1.50
2009,12,09,11,54,-1.50
2009,12,09,11,55,-1.50
2009,12,09,11,56,-1.50
2009,12,09,11,57,-1.50
2009,12,09,11,58,-1.50
2009,12,09,11,59,-1.50
2009,12,09,12,00,-1.50
2009,12,09,12,01,-1.50
2009,12,09,12,02,-1.50
2009,12,09,12,03,-1.50
2009,12,09,12,04,-1.50
2009,12,09,12,05,-1.50
2009,12,09,12,06,-1.50
2009,12,09,12,07,-1.50
2009,12,09,12,08,-1.50
2009,12,09,12,09,-1.50
2009,12,09,12,10,-1.50
2009,12,09,12,11,-1.50
2009,12,09,12,12,-1.50
2009,12,09,12,13,-1.50
2009,12,09,12,14,-1.50
2009,12,09,12,15,-1.50
2009,12,09,12,16,-1.50
2009,12,09,12,17,-1.40
2009,12,09,12,18,-1.40
2009,12,09,12,19,-1.40
2009,12,09,12,20,-1.40
2009,12,09,12,21,-1.40
2009,12,09,12,22,-1.40
2009,12,09,12,23,-1.30
2009,12,09,12,24,-1.30
2009,12,09,12,25,-1.30
2009,12,09,12,26,-1.30
2009,12,09,12,27,-1.30
2009,12,09,12,28,-1.30
2009,12,09,12,29,-1.30
2009,12,09,12,30,-1.30
2009,12,09,12,31,-1.30
2009,12,09,12,32,-1.30
2009,12,09,12,33,-1.30
2009,12,09,12,34,-1.20
2009,12,09,12,35,-1.20
2009,12,09,12,36,-1.20
2009,12,09,12,37,-1.20
2009,12,09,12,38,-1.20
2009,12,09,12,39,-1.20
2009,12,09,12,40,-1.20
2009,12,09,12,41,-1.20
2009,12,09,12,42,-1.20
2009,12,09,12,43,-1.20
2009,12,09,12,44,-1.20
2009,12,09,12,45,-1.20
2009,12,09,12,46,-1.20
2009,12,09,12,47,-1.20
2009,12,09,12,48,-1.20
2009,12,09,12,49,-1.20
2009,12,09,12,50,-1.20
2009,12,09,12,51,-1.20
2009,12,09,12,52,-1.20
2009,12,09,12,53,-1.20
2009,12,09,12,54,-1.20
2009,12,09,12,55,-1.20
2009,12,09,12,56,-1.10
2009,12,09,12,57,-1.10
2009,12,09,12,58,-1.10
2009,12,09,12,59,-1.10
2009,12,09,13,00,-1.00
2009,12,09,13,01,-1.00
2009,12,09,13,02,-1.00
2009,12,09,13,03,-1.00
2009,12,09,13,04,-1.00
2009,12,09,13,05,-1.00
2009,12,09,13,06,-1.00
2009,12,09,13,07,-1.10
2009,12,09,13,08,-1.10
2009,12,09,13,09,-1.10
2009,12,09,13,10,-1.10
2009,12,09,13,11,-1.10
2009,12,09,13,12,-1.10
2009,12,09,13,13,-1.10
2009,12,09,13,14,-1.10
2009,12,09,13,15,-1.00
2009,12,09,13,16,-1.00
2009,12,09,13,17,-1.00
2009,12,09,13,18,-0.90
2009,12,09,13,19,-0.80
2009,12,09,13,20,-0.80
2009,12,09,13,21,-0.80
2009,12,09,13,22,-0.70
2009,12,09,13,23,-0.70
2009,12,09,13,24,-0.70
2009,12,09,13,25,-0.70
2009,12,09,13,26,-0.70
2009,12,09,13,27,-0.70
2009,12,09,13,28,-0.60
2009,12,09,13,29,-0.60
2009,12,09,13,30,-0.60
2009,12,09,13,31,-0.60
2009,12,09,13,32,-0.70
2009,12,09,13,33,-0.70
2009,12,09,13,34,-0.70
2009,12,09,13,35,-0.80
2009,12,09,13,36,-0.80
2009,12,09,13,37,-0.80
2009,12,09,13,38,-0.80
2009,12,09,13,39,-0.70
2009,12,09,13,40,-0.70
2009,12,09,13,41,-0.70
2009,12,09,13,42,-0.70
2009,12,09,13,43,-0.70
2009,12,09,13,44,-0.70
2009,12,09,13,45,-0.70
2009,12,09,13,46,-0.70
2009,12,09,13,47,-0.70
2009,12,09,13,48,-0.70
2009,12,09,13,49,-0.70
2009,12,09,13,50,-0.70
2009,12,09,13,51,-0.70
2009,12,09,13,52,-0.60
2009,12,09,13,53,-0.60
2009,12,09,13,54,-0.60
2009,12,09,13,55,-0.60
2009,12,09,13,56,-0.60
2009,12,09,13,57,-0.60
2009,12,09,13,58,-0.60
2009,12,09,13,59,-0.60
2009,12,09,14,00,-0.60
2009,12,09,14,01,-0.60
2009,12,09,14,02,-0.60
2009,12,09,14,03,-0.60
2009,12,09,14,04,-0.50
2009,12,09,14,05,-0.50
2009,12,09,14,06,-0.40
2009,12,09,14,07,-0.40
2009,12,09,14,08,-0.40
2009,12,09,14,09,-0.30
2009,12,09,14,10,-0.30
2009,12,09,14,11,-0.20
2009,12,09,14,12,-0.20
2009,12,09,14,13,-0.10
2009,12,09,14,14,-0.10
2009,12,09,14,15,0.00
2009,12,09,14,16,0.10
2009,12,09,14,17,0.20
2009,12,09,14,18,0.20
2009,12,09,14,19,0.30
2009,12,09,14,20,0.40
2009,12,09,14,21,0.40
2009,12,09,14,22,0.40
2009,12,09,14,23,0.40
2009,12,09,14,24,0.40
2009,12,09,14,25,0.40
2009,12,09,14,26,0.40
2009,12,09,14,27,0.40
2009,12,09,14,28,0.40
2009,12,09,14,29,0.40
2009,12,09,14,30,0.40
2009,12,09,14,31,0.40
2009,12,09,14,32,0.50
2009,12,09,14,33,0.50
2009,12,09,14,34,0.50
2009,12,09,14,35,0.50
2009,12,09,14,36,0.60
2009,12,09,14,37,0.60
2009,12,09,14,38,0.60
2009,12,09,14,39,0.60
2009,12,09,14,40,0.60
2009,12,09,14,41,0.60
2009,12,09,14,42,0.60
2009,12,09,14,43,0.60
2009,12,09,14,44,0.50
2009,12,09,14,45,0.50
2009,12,09,14,46,0.50
2009,12,09,14,47,0.40
2009,12,09,14,48,0.40
2009,12,09,14,49,0.40
2009,12,09,14,50,0.40
2009,12,09,14,51,0.40
2009,12,09,14,52,0.40
2009,12,09,14,53,0.50
2009,12,09,14,54,0.50
2009,12,09,14,55,0.40
2009,12,09,14,56,0.40
2009,12,09,14,57,0.40
2009,12,09,14,58,0.40
2009,12,09,14,59,0.40
2009,12,09,15,00,0.40
2009,12,09,15,01,0.40
2009,12,09,15,02,0.40
2009,12,09,15,03,0.40
2009,12,09,15,04,0.30
2009,12,09,15,05,0.30
2009,12,09,15,06,0.30
2009,12,09,15,07,0.30
2009,12,09,15,08,0.30
2009,12,09,15,09,0.30
2009,12,09,15,10,0.30
2009,12,09,15,11,0.30
2009,12,09,15,12,0.30
2009,12,09,15,13,0.30
2009,12,09,15,14,0.30
2009,12,09,15,15,0.30
2009,12,09,15,16,0.40
2009,12,09,15,17,0.40
2009,12,09,15,18,0.40
2009,12,09,15,19,0.40
2009,12,09,15,20,0.40
2009,12,09,15,21,0.40
2009,12,09,15,22,0.40
2009,12,09,15,23,0.40
2009,12,09,15,24,0.40
2009,12,09,15,25,0.40
2009,12,09,15,26,0.40
2009,12,09,15,27,0.40
2009,12,09,15,28,0.40
2009,12,09,15,29,0.40
2009,12,09,15,30,0.40
2009,12,09,15,31,0.40
2009,12,09,15,32,0.40
2009,12,09,15,33,0.40
2009,12,09,15,34,0.40
2009,12,09,15,35,0.30
2009,12,09,15,36,0.30
2009,12,09,15,37,0.30
2009,12,09,15,38,0.20
2009,12,09,15,39,0.20
2009,12,09,15,40,0.10
2009,12,09,15,41,0.10
2009,12,09,15,42,0.00
2009,12,09,15,43,0.00
2009,12,09,15,44,-0.10
2009,12,09,15,45,-0.10
2009,12,09,15,46,-0.20
2009,12,09,15,47,-0.20
2009,12,09,15,48,-0.30
2009,12,09,15,49,-0.30
2009,12,09,15,50,-0.30
2009,12,09,15,51,-0.40
2009,12,09,15,52,-0.40
2009,12,09,15,53,-0.50
2009,12,09,15,54,-0.50
2009,12,09,15,55,-0.60
2009,12,09,15,56,-0.60
2009,12,09,15,57,-0.70
2009,12,09,15,58,-0.70
2009,12,09,15,59,-0.80
2009,12,09,16,00,-0.90
2009,12,09,16,01,-0.90
2009,12,09,16,02,-1.00
2009,12,09,16,03,-1.00
2009,12,09,16,04,-1.10
2009,12,09,16,05,-1.10
2009,12,09,16,06,-1.20
2009,12,09,16,07,-1.20
2009,12,09,16,08,-1.20
2009,12,09,16,09,-1.30
2009,12,09,16,10,-1.30
2009,12,09,16,11,-1.30
2009,12,09,16,12,-1.40
2009,12,09,16,13,-1.40
2009,12,09,16,14,-1.40
2009,12,09,16,15,-1.50
2009,12,09,16,16,-1.60
2009,12,09,16,17,-1.60
2009,12,09,16,18,-1.70
2009,12,09,16,19,-1.70
2009,12,09,16,20,-1.80
2009,12,09,16,21,-1.80
2009,12,09,16,22,-1.80
2009,12,09,16,23,-1.90
2009,12,09,16,24,-1.90
2009,12,09,16,25,-2.00
2009,12,09,16,26,-2.00
2009,12,09,16,27,-2.10
2009,12,09,16,28,-2.10
2009,12,09,16,29,-2.10
2009,12,09,16,30,-2.20
2009,12,09,16,31,-2.20
2009,12,09,16,32,-2.20
2009,12,09,16,33,-2.30
2009,12,09,16,34,-2.30
2009,12,09,16,35,-2.30
2009,12,09,16,36,-2.40
2009,12,09,16,37,-2.40
2009,12,09,16,38,-2.40
2009,12,09,16,39,-2.50
2009,12,09,16,40,-2.50
2009,12,09,16,41,-2.60
2009,12,09,16,42,-2.60
2009,12,09,16,43,-2.70
2009,12,09,16,44,-2.70
2009,12,09,16,45,-2.70
2009,12,09,16,46,-2.70
2009,12,09,16,47,-2.80
2009,12,09,16,48,-2.80
2009,12,09,16,49,-2.80
2009,12,09,16,50,-2.80
2009,12,09,16,51,-2.80
2009,12,09,16,52,-2.80
2009,12,09,16,53,-2.80
2009,12,09,16,54,-2.70
2009,12,09,16,55,-2.70
2009,12,09,16,56,-2.70
2009,12,09,16,57,-2.70
2009,12,09,16,58,-2.70
2009,12,09,16,59,-2.70
2009,12,09,17,00,-2.70
2009,12,09,17,01,-2.70
2009,12,09,17,02,-2.80
2009,12,09,17,03,-2.80
2009,12,09,17,04,-2.80
2009,12,09,17,05,-2.80
2009,12,09,17,06,-2.90
2009,12,09,17,07,-2.90
2009,12,09,17,08,-2.90
2009,12,09,17,09,-2.90
2009,12,09,17,10,-3.00
2009,12,09,17,11,-3.00
2009,12,09,17,12,-3.00
2009,12,09,17,13,-3.00
2009,12,09,17,14,-3.00
2009,12,09,17,15,-3.00
2009,12,09,17,16,-3.00
2009,12,09,17,17,-2.90
2009,12,09,17,18,-2.90
2009,12,09,17,19,-2.90
2009,12,09,17,20,-2.90
2009,12,09,17,21,-3.00
2009,12,09,17,22,-3.00
2009,12,09,17,23,-3.00